C/2021 T2 ( Fuls )

Japanese version
Home page
Updated on March 15, 2022

---------------------------------------------------------------------

* Profile

Discovery Date October 2, 2021
Magnitude 19.8 mag
Discoverer D. C. Fuls (Mt. Lemmon Survey)

* Pictures

* Orbital Elements

Epoch 2022 Jan. 21.0 TT = JDT 2459600.5
T 2022 June 7.89266 TT                                  Rudenko
q   1.2476882            (2000.0)            P               Q
z  -0.0001600      Peri.  263.59197     +0.39590317     -0.68871323
 +/-0.0000106      Node   223.23115     +0.11365595     -0.61960936
e   1.0001996      Incl.  117.52754     -0.91123159     -0.37650807
From 183 observations 2021 Oct. 2-2022 Feb. 25, mean residual 0".7.

* Finding Charts

* Magnitudes Graph

        m1 = 12.0 + 5 log d + 10.0 log r

---------------------------------------------------------------------

The orbital elements are published on M.P.E.C. 2022-E133.
The charts are made with StellaNavigator Ver.10 (AstroArts).
The magnitudes graphs are made with Comet for Windows.

---------------------------------------------------------------------

Copyright(C) Seiichi Yoshida (comet@aerith.net). All rights reserved.